This demonstration page uses our WeatherBlox Daily Observations layout. Learn more.

Left ArrowRight Arrow

38.20091, -84.87328

Hourly Observations for August 23, 2022

Temp ( °F °C ) Dew Point ( °F °C ) Humidity (%) Winds ( mph kmh ) Pressure ( in mb ) Visibility ( mi km ) Precip ( " mm )
12:53 am 00:53 Clear with Mist and Fog 65 18.3 64 17.8 97 97 SW 5 7 29.99 1016 5 8 0.00 0.00
1:53 am 01:53 Clear 64 17.8 62 16.7 93 93 Calm 29.98 1015 9 14 0.00 0.00
2:39 am 02:39 Mostly Clear with Mist and Fog 63 17.2 61 16.1 93 93 NNW 3 6 29.99 1016 3 4 0.00 0.00
2:48 am 02:48 Partly Cloudy with Mist and Fog 63 17 61 16 94 94 NNW 3 6 29.99 1016 2 3 0.00 0.00
2:53 am 02:53 Mostly Clear with Mist and Fog 63 17.2 61 16.1 93 93 Calm 29.98 1015 4 6 0.00 0.00
3:53 am 03:53 Clear 62 16.7 60 15.6 93 93 Calm 29.97 1015 10 16 0.00 0.00
4:53 am 04:53 Clear 62 16.7 60 15.6 93 93 Calm 29.96 1014 7 11 0.00 0.00
5:53 am 05:53 Clear 61 16.1 59 15 93 93 NNW 3 6 29.96 1015 8 13 0.00 0.00
6:53 am 06:53 Clear 59 15 58 14.4 96 96 Calm 29.97 1015 10 16 0.00 0.00
7:24 am 07:24 Partly Cloudy 60 15.6 59 15 96 96 Calm 29.98 1015 7 11 0.00 0.00
7:53 am 07:53 Sunny with Mist and Fog 62 16.7 60 15.6 93 93 Calm 29.98 1015 6 10 0.00 0.00
8:53 am 08:53 Sunny 68 20 65 18.3 90 90 Calm 30.00 1016 10 16 0.00 0.00
9:53 am 09:53 Sunny 74 23.3 67 19.4 79 79 Calm 30.01 1016 10 16 0.00 0.00
10:53 am 10:53 Sunny 76 24.4 66 18.9 71 71 Calm 30.02 1017 10 16 0.00 0.00
11:53 am 11:53 Mostly Sunny 76 24.4 66 18.9 71 71 Calm 30.02 1017 10 16 0.00 0.00
12:53 pm 12:53 Mostly Sunny 80 26.7 64 17.8 58 58 VRB 5 7 30.00 1016 10 16 0.00 0.00
1:53 pm 13:53 Sunny 82 27.8 64 17.8 55 55 Calm 29.99 1016 10 16 0.00 0.00
2:53 pm 14:53 Partly Cloudy 83 28.3 64 17.8 53 53 VRB 3 6 29.98 1015 10 16 0.00 0.00
3:53 pm 15:53 Sunny 83 28.3 64 17.8 53 53 WSW 6 9 29.97 1015 10 16 0.00 0.00
4:53 pm 16:53 Sunny 83 28.3 63 17.2 51 51 VRB 6 9 29.96 1014 10 16 0.00 0.00
5:53 pm 17:53 Sunny 83 28.3 64 17.8 53 53 NW 6 9 29.95 1014 10 16 0.00 0.00
6:53 pm 18:53 Sunny 82 27.8 63 17.2 53 53 N 7 11 29.95 1014 10 16 0.00 0.00
7:53 pm 19:53 Sunny 79 26.1 63 17.2 58 58 N 3 6 29.95 1014 10 16 0.00 0.00
8:53 pm 20:53 Clear 75 23.9 64 17.8 69 69 N 3 6 29.97 1015 10 16 0.00 0.00
9:53 pm 21:53 Clear 70 21.1 64 17.8 81 81 Calm 29.98 1015 10 16 0.00 0.00
10:53 pm 22:53 Clear 67 19.4 63 17.2 87 87 Calm 30.00 1016 10 16 0.00 0.00
11:53 pm 23:53 Clear 66 18.9 63 17.2 90 90 Calm 30.01 1016 10 16 0.00 0.00

Powered by AerisWeather